Regional Weather Roundup
Issued by NWS Charleston, SC

Current Version | Previous Version | Graphics & Text | Print | Product List | Glossary On
Versions: 1 2 3 4 5 6 7 8 9 10 11 12 13 14 15 16 17 18 19 20 21 22 23 24 25 26 27 28 29 30 31 32 33 34 35 36 37 38 39 40 41 42 43 44 45 46 47 48 49 50
000 ASUS42 KCHS 302313 RWRCHS REGIONAL WEATHER ROUNDUP NATIONAL WEATHER SERVICE CHARLESTON SC 700 PM EDT SAT APR 30 2016 NOTE: "FAIR" INDICATES FEW OR NO CLOUDS BELOW 12,000 FEET WITH NO SIGNIFICANT WEATHER AND/OR OBSTRUCTIONS TO VISIBILITY. NOT ALL STATIONS ARE QUALITY CONTROLLED. USE DATA WITH CAUTION... ESPECIALLY DEWPOINT OBSERVATIONS. SCZ027-030-031-034>040-042>050-010000- ...SOUTHEAST SOUTH CAROLINA... CITY SKY/WX TMP DP RH WIND PRES REMARKS N CHARLESTON CLOUDY 78 68 71 SE10 30.03R WATERFRONT PRK N/A 75 71 87 E12 30.01R MOUNT PLEASANT MOCLDY 75 70 83 E5 30.03S JOHNS ISLAND FAIR 77 72 83 E12 30.03R PINOPOLIS N/A 82 68 61 VRB3 29.94R MONCKS CORNER FAIR 75 64 69 SE6 30.03R SUMMERVILLE FAIR 81 68 65 SE8 30.03S BEAUFORT MCAS MOSUNNY 79 68 69 SE8G16 30.01R BEAUFORT ARPT FAIR 79 64 61 SE6 30.01R HILTON HEAD IS SUNNY 77 70 78 SE5 30.02R WALTERBORO CLOUDY 81 64 57 SE8 30.03R ALLENDALE FAIR 82 55 39 SE10 29.98S ...SOUTHERN MIDLANDS AND PEE DEE... CITY SKY/WX TMP DP RH WIND PRES REMARKS GEORGETOWN CLOUDY 68 63 83 NE12G17 30.08R KINGSTREE FAIR 73 63 68 E12 30.04R ORANGEBURG MOSUNNY 81 63 54 S9 30.00R BARNWELL FAIR 84 59 42 SE16 29.98S AIKEN FAIR 81 61 50 SE10 30.00S MANNING NOT AVBL COLUMBIA PTSUNNY 85 59 41 S16 29.97R SUMTER CLOUDY 81 65 58 SE12G17 29.98R FLORENCE PTSUNNY 76 65 68 SE12 30.04R MYRTLE BEACH PTSUNNY 70 57 64 E17G24 30.10R N MYRTLE BEACH PTSUNNY 70 61 73 E10 30.08S $$ GAZ063-065-086>088-099>101-113>116-118-119-134>141-150-010000- ...SOUTHEAST GEORGIA... CITY SKY/WX TMP DP RH WIND PRES REMARKS SAVANNAH ARPT PTSUNNY 80 68 66 SE12 29.99R HUNTER AAF MOSUNNY 78 72 80 E13 29.97R FORT STEWART CLOUDY 79 70 73 E9 29.95F STATESBORO MOSUNNY 85 68 57 SE8G16 29.96F SYLVANIA CLOUDY 82 67 59 SE8 29.98F CLAXTON FAIR 82 70 67 E7G17 29.97R ...CSRA...CENTRAL AND FAR SOUTHEAST GEORGIA... CITY SKY/WX TMP DP RH WIND PRES REMARKS THOMSON CLOUDY 87 65 47 SE7 29.99S AUGUSTA-BUSH MOSUNNY 82 62 50 SE10 29.94S AUGUSTA-DANIEL CLOUDY 84 61 45 SE8 29.96S SWAINSBORO FAIR 84 55 37 SE8 29.95S VIDALIA MOSUNNY 86 61 42 SE10 29.95R EASTMAN LGT RAIN 72 72 100 CALM 29.96F HAZLEHURST FAIR 85 62 44 SE9 29.93R ALMA CLOUDY 82 65 56 E12G20 29.94R WAYCROSS PTSUNNY 81 66 60 E12 29.94R JESUP FAIR 82 72 69 SE7 29.97R BAXLEY FAIR 84 63 48 SE9G17 29.95R BRUNSWICK CLOUDY 82 72 69 E7 29.98S SAINT SIMONS CLOUDY 77 73 87 E9 29.97S $$ SCZ027-028-034-036>038-045-046-048>050-GAZ119-141-010000- ...LAKE AND SUPPLEMENTAL COASTAL OBSERVATIONS... STATION/POSITION TIME TEMP WIND PRES WAVE SWELL AIR SEA DIR/SP/G HT/PER HT/PER/DIR (UTC) (F) (DEG/KT/KT) (MB) (FT/S) (FT/S/D) WINYAH BAY 2145 69 60/ 16 1017.0 LAKE MURRAY 2200 82 160/ 11/ 17 1014.2R ACE BASIN NERRS NOT AVBL FORT PULASKI 2200 76 73 1016.1R SAPELO ISLAND 2200 80 100/ 8 1015.0S $$ ANZ835-935-AMZ111-154-330-350-352-354-370-450-454-472-010000- ...C-MAN AND BUOY OBSERVATIONS... STATION/POSITION TIME TEMP WIND PRES WAVE SWELL AIR SEA DIR/SP/G HT/PER HT/PER/DIR (UTC) (F) (DEG/KT/KT) (MB) (FT/S) (FT/S/D) BUOY 41004 2250 75 74 90/ 12/ 14 1016.4R 3/ 4 2/10 BUOY 41008 NOT AVBL FOLLY BEACH CMAN 2300 74 90/ 11/ 13 1017.2R CAPERS NEARSHORE 2208 74 72 100/ 8/ 10 1016.8R FRIPP NEARSHORE 2208 75 75 100/ 8/ 8 1015.5R STATION/POSITION TIME TEMP WIND PRES WAVE SWELL AIR SEA DIR/SP/G HT/PER HT/PER/DIR (UTC) (F) (DEG/KT/KT) (MB) (FT/S) (FT/S/D) 5E ST. MARYS GA 2221 74 N/A 2/10 FRYING PAN BUOY 2200 69 70 50/ 17/ 21 1018.4R BUOY 41025 2250 59 73 40/ 16/ 21 1020.4R 5/10 3/ 40/10 CAPE LOOKOUT NC 2200 62 50/ 17/ 18 1020.2R BUOY 41002 2250 71 60/ 12/ 14 1018.6R 5/10 3/ 40/10 BUOY 41010 2220 77 78 140/ 2/ 4 1016.4R ST AUGUSTINE FL 2300 74 75 140/ 11/ 12 1015.4R $$

USA.gov is the U.S. government's official web portal to all federal, state and local government web resources and services.